Flag Weather past 2 weeks in Cleveland, Tennessee, U.S.A.

Now
58 °F

Broken clouds.


Feels Like: 55 °F
Forecast: 40 / 57 °F
Wind: 12 mph from North

Location: Lovell Field

Current Time: Oct 31, 2014 at 2:11:02 PM

Latest Report: Oct 31, 2014 at 12:53 PM


Visibility: 10 mi

Pressure: 29.96 "Hg

Humidity: 54%

Dew point: 41 °F

Location of ClevelandLocation

Historic Weather in Cleveland — Graph

°F

Cleveland temperature yesterday

Maximum temperature yesterday: 66 °F (at 4:53 PM)
Minimum temperature yesterday: 41 °F (at 6:53 AM)
Average temperature yesterday: 53 °F

Past Weeks' High & Low Weather Summary

 TemperatureHumidityPressure
High85 °F (Oct 27, 3:53 PM)100% (Oct 17, 4:53 AM)30.21 "Hg (Oct 17, 4:53 AM)
Low34 °F (Oct 17, 4:59 AM)35% (Oct 24, 4:53 PM)29.84 "Hg (Oct 17, 6:53 PM)
Average59 °F72%30.05 "Hg
* Reported Oct 16 12:53 PM — Oct 31 12:53 PM, Cleveland, Weather by CustomWeather, © 2014

Note: Actual official high and low records may vary slightly from our data, if they occured in-between our weather recording intervals... More about our weather records

Advertising

Cleveland weather history for previous 24 hours

 ConditionsComfort  
Time TempWeatherWind HumidityBarometerVisibility
12:53 PM
Oct 31
58 °FBroken clouds.12 mph54%29.96 "Hg10 mi
11:53 AM58 °FBroken clouds.5 mph54%29.97 "Hg10 mi
10:53 AM55 °FBroken clouds.7 mph64%29.98 "Hg10 mi
9:53 AM52 °FBroken clouds.6 mph72%29.99 "Hg10 mi
8:53 AM50 °FPartly cloudy.No wind77%29.98 "Hg10 mi
7:53 AM49 °FMostly cloudy.5 mph77%29.96 "Hg10 mi
6:53 AM48 °FPartly cloudy.7 mph83%29.97 "Hg7 mi
5:53 AM45 °FPassing clouds.No wind93%29.98 "Hg7 mi
4:53 AM44 °FPassing clouds.3 mph89%29.98 "Hg10 mi
3:53 AM43 °FClear.No wind93%29.99 "Hg10 mi
2:53 AM43 °FClear.3 mph93%30.01 "Hg10 mi
1:53 AM44 °FClear.No wind89%30.01 "Hg10 mi
12:53 AM46 °FClear.No wind86%30.02 "Hg10 mi
11:53 PM
Oct 30
47 °FClear.No wind83%30.02 "Hg10 mi
10:53 PM48 °FClear.No wind80%30.02 "Hg10 mi
9:53 PM51 °FClear.No wind71%30.01 "Hg10 mi
8:53 PM54 °FClear.3 mph59%30.01 "Hg10 mi
7:53 PM55 °FPassing clouds.3 mph62%30.02 "Hg10 mi
6:53 PM62 °FScattered clouds.3 mph44%30.00 "Hg10 mi
5:53 PM65 °FPassing clouds.5 mph37%30.00 "Hg10 mi
4:53 PM66 °FSunny.3 mph37%30.00 "Hg10 mi
3:53 PM65 °FSunny.No wind37%30.01 "Hg10 mi
2:53 PM65 °FSunny.5 mph39%30.03 "Hg10 mi
Weather by CustomWeather, © 2014

See weather overviewHow to use our weather pages